| time (UTC) | temp F | wind direction | speed knots | gust knots | rain 1hr in | rain 24hr in | rain mn in | humidity % | barometer mb |
| 20260508100217 | 56 | 114 | 1.7 | 3.5 | 0.00 | 0.03 | 0.00 | 71 | 1016.1 |
| 20260508094503 | 56 | 121 | 0.9 | 4.3 | 0.00 | 0.03 | 0.00 | 70 | 1016.2 |
| 20260508093003 | 56 | 73 | 1.7 | 3.5 | 0.00 | 0.03 | 0.00 | 67 | 1016.1 |
| 20260508091503 | 56 | 131 | 1.7 | 6.1 | 0.00 | 0.03 | 0.00 | 72 | 1016.0 |
| 20260508090004 | 56 | 117 | 1.7 | 4.3 | 0.00 | 0.03 | 0.00 | 72 | 1016.0 |
| 20260508084716 | 56 | 74 | 2.6 | 6.1 | 0.00 | 0.03 | 0.00 | 72 | 1015.9 |
| 20260508083003 | 54 | 67 | 3.5 | 7.0 | 0.00 | 0.03 | 0.00 | 81 | 1015.8 |
| 20260508081503 | 52 | 79 | 0.9 | 3.5 | 0.00 | 0.03 | 0.00 | 97 | 1015.9 |
| 20260508080003 | 49 | 56 | 1.7 | 2.6 | 0.00 | 0.03 | 0.00 | 99 | 1015.9 |
| 20260508074503 | 48 | 0 | 0.0 | 0.0 | 0.00 | 0.03 | 0.00 | 99 | 1015.9 |
| 20260508073003 | 48 | 0 | 0.0 | 0.0 | 0.00 | 0.03 | 0.00 | 99 | 1015.9 |
| 20260508071503 | 47 | 0 | 0.0 | 0.0 | 0.00 | 0.03 | 0.00 | 99 | 1015.9 |
| 20260508070004 | 47 | 0 | 0.0 | 0.0 | 0.00 | 0.03 | 0.00 | 99 | 1015.8 |
| 20260508064503 | 47 | 0 | 0.0 | 0.0 | 0.00 | 0.03 | 0.00 | 99 | 1015.8 |
| 20260508063003 | 47 | 0 | 0.0 | 0.0 | 0.00 | 0.03 | 0.00 | 99 | 1015.6 |
| 20260508061503 | 46 | 0 | 0.0 | 0.0 | 0.00 | 0.03 | 0.00 | 99 | 1015.5 |
| 20260508060003 | 46 | 0 | 0.0 | 0.0 | 0.00 | 0.03 | 0.00 | 99 | 1015.4 |
| 20260508054503 | 46 | 203 | 0.0 | 0.9 | 0.00 | 0.03 | 0.00 | 99 | 1015.2 |
| 20260508053218 | 45 | 0 | 0.0 | 0.0 | 0.00 | 0.03 | 0.00 | 99 | 1015.2 |
| 20260508051717 | 45 | 199 | 0.0 | 1.7 | 0.00 | 0.03 | 0.00 | 97 | 1015.1 |
| 20260508050003 | 45 | 0 | 0.0 | 0.0 | 0.00 | 0.03 | 0.00 | 97 | 1015.2 |
| 20260508044503 | 44 | 0 | 0.0 | 0.0 | 0.00 | 0.03 | 0.00 | 97 | 1015.0 |
| 20260508043003 | 45 | 0 | 0.0 | 0.0 | 0.00 | 0.03 | 0.00 | 97 | 1015.0 |
| 20260508041503 | 45 | 0 | 0.0 | 0.0 | 0.00 | 0.03 | 0.00 | 97 | 1015.0 |
| 20260508040003 | 45 | 0 | 0.0 | 0.0 | 0.00 | 0.03 | 0.00 | 97 | 1015.0 |
| 20260508034503 | 45 | 0 | 0.0 | 0.0 | 0.00 | 0.03 | 0.00 | 97 | 1015.0 |
| 20260508033003 | 45 | 0 | 0.0 | 0.0 | 0.00 | 0.03 | 0.00 | 97 | 1014.9 |
| 20260508031503 | 45 | 0 | 0.0 | 0.0 | 0.00 | 0.03 | 0.00 | 95 | 1015.0 |
| 20260508030219 | 45 | 0 | 0.0 | 0.0 | 0.00 | 0.03 | 0.00 | 97 | 1014.9 |
| 20260508024503 | 46 | 0 | 0.0 | 0.0 | 0.00 | 0.03 | 0.00 | 95 | 1015.1 |
| 20260508023217 | 46 | 0 | 0.0 | 0.0 | 0.00 | 0.03 | 0.00 | 95 | 1015.0 |
| 20260508021503 | 46 | 0 | 0.0 | 0.0 | 0.00 | 0.03 | 0.00 | 95 | 1014.9 |
| 20260508020003 | 46 | 0 | 0.0 | 0.0 | 0.00 | 0.03 | 0.00 | 95 | 1014.9 |
| 20260508014503 | 46 | 0 | 0.0 | 0.0 | 0.00 | 0.03 | 0.00 | 95 | 1014.9 |
| 20260508013003 | 46 | 0 | 0.0 | 0.0 | 0.00 | 0.03 | 0.00 | 95 | 1014.9 |
| 20260508011503 | 46 | 0 | 0.0 | 0.0 | 0.00 | 0.03 | 0.00 | 95 | 1014.9 |
| 20260508010003 | 46 | 0 | 0.0 | 0.0 | 0.00 | 0.03 | 0.00 | 95 | 1015.0 |
| 20260508004503 | 46 | 0 | 0.0 | 0.0 | 0.00 | 0.03 | 0.00 | 95 | 1015.1 |
| 20260508003216 | 46 | 0 | 0.0 | 0.0 | 0.00 | 0.03 | 0.00 | 94 | 1015.1 |
| 20260508001503 | 46 | 0 | 0.0 | 0.0 | 0.00 | 0.03 | 0.00 | 94 | 1015.1 |
| 20260508000003 | 46 | 0 | 0.0 | 0.0 | 0.00 | 0.03 | 0.00 | 94 | 1015.1 |
| 20260507234503 | 46 | 0 | 0.0 | 0.0 | 0.00 | 0.03 | 0.03 | 94 | 1015.1 |
| 20260507233003 | 46 | 175 | 0.9 | 2.6 | 0.00 | 0.03 | 0.03 | 92 | 1015.1 |
| 20260507231503 | 46 | 0 | 0.0 | 0.0 | 0.00 | 0.03 | 0.03 | 92 | 1015.1 |
| 20260507230003 | 47 | 0 | 0.0 | 0.0 | 0.00 | 0.03 | 0.03 | 92 | 1015.1 |
| 20260507224504 | 47 | 0 | 0.0 | 0.0 | 0.00 | 0.03 | 0.03 | 91 | 1015.1 |
| 20260507223003 | 47 | 0 | 0.0 | 0.0 | 0.00 | 0.03 | 0.03 | 91 | 1015.0 |
| 20260507221503 | 48 | 0 | 0.0 | 0.0 | 0.00 | 0.03 | 0.03 | 91 | 1015.1 |
| 20260507220003 | 48 | 0 | 0.0 | 0.0 | 0.00 | 0.03 | 0.03 | 89 | 1015.0 |
| 20260507214716 | 48 | 0 | 0.0 | 0.0 | 0.00 | 0.03 | 0.03 | 89 | 1015.1 |
| 20260507213003 | 49 | 259 | 0.9 | 2.6 | 0.00 | 0.03 | 0.03 | 88 | 1015.1 |
| 20260507211503 | 49 | 189 | 3.5 | 5.2 | 0.00 | 0.03 | 0.03 | 86 | 1015.0 |
| 20260507210003 | 49 | 189 | 1.7 | 4.3 | 0.00 | 0.03 | 0.03 | 86 | 1014.8 |
| 20260507204503 | 49 | 177 | 3.5 | 5.2 | 0.00 | 0.03 | 0.03 | 86 | 1014.7 |
| 20260507203003 | 49 | 171 | 3.5 | 6.1 | 0.00 | 0.03 | 0.03 | 86 | 1014.6 |
| 20260507201717 | 49 | 176 | 5.2 | 7.0 | 0.00 | 0.03 | 0.03 | 86 | 1014.6 |
| 20260507200003 | 49 | 169 | 6.1 | 8.7 | 0.00 | 0.03 | 0.03 | 88 | 1014.3 |
| 20260507194503 | 49 | 172 | 7.8 | 11.3 | 0.00 | 0.03 | 0.03 | 89 | 1014.3 |
| 20260507193003 | 49 | 166 | 6.1 | 9.6 | 0.00 | 0.03 | 0.03 | 89 | 1014.2 |
| 20260507191503 | 49 | 176 | 7.0 | 10.4 | 0.00 | 0.03 | 0.03 | 91 | 1014.2 |
| 20260507190004 | 49 | 166 | 3.5 | 5.2 | 0.00 | 0.03 | 0.03 | 91 | 1014.1 |
| 20260507184503 | 50 | 172 | 4.3 | 7.0 | 0.00 | 0.03 | 0.03 | 91 | 1014.1 |
| 20260507183003 | 50 | 181 | 2.6 | 4.3 | 0.00 | 0.03 | 0.03 | 91 | 1014.0 |
| 20260507181717 | 51 | 233 | 0.0 | 1.7 | 0.00 | 0.03 | 0.03 | 91 | 1014.0 |
| 20260507180003 | 51 | 303 | 0.9 | 2.6 | 0.00 | 0.03 | 0.03 | 92 | 1013.8 |
| 20260507174503 | 51 | 179 | 1.7 | 4.3 | 0.00 | 0.03 | 0.03 | 91 | 1013.9 |
| 20260507173003 | 51 | 165 | 1.7 | 3.5 | 0.00 | 0.03 | 0.03 | 91 | 1014.0 |
| 20260507171503 | 51 | 166 | 1.7 | 4.3 | 0.00 | 0.03 | 0.03 | 91 | 1014.0 |
| 20260507170003 | 52 | 161 | 0.0 | 2.6 | 0.02 | 0.03 | 0.03 | 92 | 1014.1 |
| 20260507164718 | 51 | 182 | 2.6 | 4.3 | 0.03 | 0.03 | 0.03 | 92 | 1014.1 |
| 20260507163003 | 50 | 172 | 3.5 | 5.2 | 0.03 | 0.03 | 0.03 | 89 | 1014.2 |
| 20260507161503 | 50 | 200 | 5.2 | 7.8 | 0.03 | 0.03 | 0.03 | 86 | 1014.3 |
| 20260507160003 | 51 | 228 | 6.1 | 13.0 | 0.01 | 0.01 | 0.01 | 84 | 1014.4 |
| 20260507154503 | 53 | 259 | 8.7 | 12.2 | 0.00 | 0.00 | 0.00 | 75 | 1014.3 |
| 20260507153003 | 56 | 264 | 2.6 | 7.0 | 0.00 | 0.00 | 0.00 | 63 | 1014.0 |
| 20260507151503 | 56 | 284 | 1.7 | 4.3 | 0.00 | 0.00 | 0.00 | 62 | 1013.9 |
| 20260507150218 | 56 | 181 | 5.2 | 11.3 | 0.00 | 0.00 | 0.00 | 59 | 1013.9 |
| 20260507144503 | 57 | 128 | 3.5 | 7.8 | 0.00 | 0.00 | 0.00 | 63 | 1013.9 |
| 20260507143003 | 57 | 123 | 4.3 | 14.8 | 0.00 | 0.00 | 0.00 | 61 | 1014.0 |
| 20260507141503 | 57 | 192 | 6.1 | 15.6 | 0.00 | 0.00 | 0.00 | 61 | 1014.2 |
| 20260507140003 | 58 | 195 | 5.2 | 16.5 | 0.00 | 0.00 | 0.00 | 59 | 1014.3 |
| 20260507134503 | 58 | 134 | 3.5 | 10.4 | 0.00 | 0.00 | 0.00 | 62 | 1014.2 |
| 20260507133003 | 59 | 179 | 5.2 | 12.2 | 0.00 | 0.00 | 0.00 | 61 | 1014.3 |
| 20260507131503 | 59 | 119 | 3.5 | 10.4 | 0.00 | 0.00 | 0.00 | 66 | 1014.3 |
| 20260507130003 | 58 | 154 | 3.5 | 10.4 | 0.00 | 0.00 | 0.00 | 63 | 1014.5 |
| 20260507124503 | 58 | 199 | 4.3 | 15.6 | 0.00 | 0.00 | 0.00 | 63 | 1014.5 |
| 20260507123003 | 57 | 189 | 5.2 | 10.4 | 0.00 | 0.00 | 0.00 | 61 | 1014.7 |
| 20260507121503 | 59 | 127 | 4.3 | 11.3 | 0.00 | 0.00 | 0.00 | 64 | 1014.6 |
| 20260507120003 | 59 | 143 | 2.6 | 9.6 | 0.00 | 0.00 | 0.00 | 58 | 1014.6 |
| 20260507114503 | 59 | 127 | 5.2 | 11.3 | 0.00 | 0.00 | 0.00 | 59 | 1014.7 |
| 20260507113219 | 58 | 137 | 4.3 | 11.3 | 0.00 | 0.00 | 0.00 | 67 | 1014.9 |
| 20260507111503 | 57 | 140 | 2.6 | 7.8 | 0.00 | 0.00 | 0.00 | 66 | 1015.0 |
| 20260507110003 | 54 | 192 | 5.2 | 9.6 | 0.00 | 0.00 | 0.00 | 75 | 1015.2 |
| 20260507104503 | 53 | 179 | 2.6 | 7.8 | 0.00 | 0.00 | 0.00 | 75 | 1015.3 |
| 20260507103003 | 52 | 2 | 1.7 | 7.0 | 0.00 | 0.00 | 0.00 | 76 | 1015.3 |
| 20260507101503 | 51 | 103 | 2.6 | 7.0 | 0.00 | 0.00 | 0.00 | 78 | 1015.4 |